Tracking 28126 objects as of 1-Oct-2023
HD Live streaming from Space Station
objects crossing your sky now

STARLINK-2654

Track STARLINK-2654 now!
10-day predictions
STARLINK-2654 is classified as:


NORAD ID: 48454
Int'l Code: 2021-040AC
Perigee: 553.3 km
Apogee: 555.4 km
Inclination: 53.1 °
Period: 95.6 minutes
Semi major axis: 6925 km
RCS: Unknown
Launch date: May 9, 2021
Source: United States (US)
Launch site: AIR FORCE EASTERN TEST RANGE (AFETR)
Your satellite tracking list
Your tracking list is empty




NASA's NSSDC Master Catalog

Two Line Element Set (TLE):
1 48454U 21040AC  23273.59827652  .00003350  00000-0  24374-3 0  9997
2 48454  53.0550 221.8750 0001546 129.2993 230.8133 15.06394635133606
Source of the keplerian elements: AFSPC